www.pogodaiklimat.ru

Погода и климат >> Архив погоды >> Мексика >> Chihuahua University


ПОГОДА в Chihuahua University

  • Прогноз погоды в Chihuahua University
  • Монитор погоды в Chihuahua University
  • Климат города

АРХИВ ПОГОДЫ в Chihuahua University

Время (UTC), дата Ветер
(напр.,м/с)
 
Видим.   Явления Облачность Т
(С)
Тd
(С)
f
(%)
Тe
(С)
Тes
(С)
Комфортность P
(гПа)
Po
(гПа)
Тmin
(С)
Tmax
(С)
R
(мм)
R24
(мм)
S
(см)
03 13.11 З 2 2000 м 4/0 2000 м
[As trans]
+19.2 +5.0 39 +20 +20 1009.5 864.9
06 13.11 ЮЗ 4 2000 м 4/0 2000 м
[As op]
+16.6 +6.5 51 +16 +16 1011.5 866.1 +5.0 +29.5
09 13.11 З 2 2000 м 4/0 2000 м
[As op]
+13.4 +5.4 58 +13 +13 1013.2 866.2
12 13.11 З 2 2000 м 1/0
[Cs]
+10.4 +5.6 72 +9 +9 1016.2 866.8 +10.4 +29.5
15 13.11 В 2 8000 м мгла туман 3/0 2000 м
[Ac trans Ci fib]
+14.8 +7.5 62 +15 +16 1019.1 868.1
18 13.11 В 4 10 км 8/0
[Cc]
+24.0 +9.1 39 +25 +30 комфорт 1018.0 867.8 +7.0 +24.0
21 13.11 В 4 10 км 4/0
[Cs]
+24.8 +14.4 52 +27 +32 жарко 1012.9 864.6
00 14.11 Ю 3 10 км 6/0 2000 м
[As trans]
+26.6 +8.1 31 +27 +27 жарко 1010.2 864.2 +10.0 +29.5
03 14.11 З 1 2000 м ясно +18.0 +7.8 51 +19 +19 1010.5 865.3
06 14.11 З 2 2000 м 3/0
[As op]
+17.0 +6.5 50 +17 +17 1011.7 865.8 +10.0 +29.5
09 14.11 ЮЗ 3 2000 м ясно +16.8 +5.9 49 +17 +17 1012.3 865.3
12 14.11 З 3 2000 м ясно +15.4 +5.8 53 +15 +15 1013.5 864.9 +15.4 +29.5
15 14.11 В 1 8000 м мгла 3/0 2000 м
[Ac lent Ci]
+15.6 +7.3 58 +16 +18 1015.4 865.9
18 14.11 В 2 9000 м мгла ясно +25.4 +7.2 31 +25 +34 комфорт 1013.9 865.2 +11.2 +26.0
21 14.11 В 5 10 км 4/0
[Ac lent]
+30.4 +7.0 23 +29 +32 жарко 1008.5 862.0
00 15.11 В 3 10 км ясно +27.2 +9.4 33 +28 +28 жарко 1005.3 860.7 +11.2 +30.5
03 15.11 З 3 2000 м ясно +19.2 +5.1 39 +20 +20 1006.0 862.1
06 15.11 З 3 2000 м ясно +15.4 +4.9 50 +15 +15 1007.3 862.5 +11.2 +30.5
09 15.11 З 2 2000 м ясно +13.0 +4.9 58 +12 +12 1009.1 862.3
12 15.11 СЗ 1 2000 м ясно +10.6 +4.2 65 +11 +11 1011.9 862.7 +10.2 +30.5
15 15.11 Ю 1 8000 м мгла ясно +15.4 +6.2 54 +16 +18 1015.3 864.5
18 15.11 Ю 1 9000 м мгла ясно +24.8 +5.8 29 +24 +35 комфорт 1014.5 864.5 +11.2 +26.0
21 15.11 С 2 10 км 3/0
[Ac lent]
+28.8 +5.3 22 +27 +33 жарко 1009.4 861.9
00 16.11 В 4 10 км 8/0 2000 м
[Ac trans]
+26.2 +6.0 27 +26 +26 жарко 1006.4 861.2 +9.0 +29.0
03 16.11 С 4 2000 м 4/0 2000 м
[Ac trans]
+18.2 +1.5 33 +18 +18 1007.2 862.7
06 16.11 СЗ 1 2000 м ясно +14.4 +2.6 45 +15 +15 1009.5 863.9 +9.0 +29.0
09 16.11 З 2 2000 м ясно +12.0 +1.3 48 +11 +11 1010.6 863.2
12 16.11 З 1 2000 м ясно +9.6 +1.1 55 +9 +9 1012.9 863.2 +8.6
15 16.11 В 1 8000 м мгла туман ясно +14.2 +4.2 51 +15 +16 1015.4 864.3
18 16.11 В 2 10 км ясно +24.8 +3.7 25 +24 +33 комфорт 1014.1 864.0 +5.5 +25.0
21 16.11 Ю 1 10 км ясно +30.6 +6.3 22 +29 +37 жарко 1008.3 860.8
00 17.11 В 3 10 км ясно +28.2 +5.3 23 +27 +27 жарко 1005.2 860.3 +7.5 +31.2
03 17.11 З 3 2000 м ясно +19.2 +4.1 37 +20 +20 1005.4 861.7
06 17.11 СЗ 1 2000 м ясно +18.2 +3.1 37 +19 +19 1007.3 862.9 +7.5 +31.2
09 17.11 З 3 2000 м ясно +15.6 +1.3 38 +15 +15 1008.6 862.5
12 17.11 З 4 2000 м ясно +17.8 +2.5 36 +18 +18 1010.5 862.5 +13.2 +31.2
15 17.11 В 2 8000 м мгла 4/0 2000 м
[Ac lent Ci]
+16.4 +3.9 43 +17 +18 1013.5 864.2
18 17.11 Ю 3 9000 м мгла 3/0
[Ac lent]
+27.0 +4.2 23 +26 +31 жарко 1011.6 863.3 +11.2 +27.5
21 17.11 Ю 3 10 км 3/0
[Ac inh]
+30.8 +2.7 17 +28 +33 жарко 1005.7 860.0
00 18.11 СЗ 3 10 км 3/0
[Cc]
+28.4 +2.6 19 +26 +27 жарко 1002.2 858.6 +11.2 +31.8
03 18.11 З 2 2000 м ясно +20.6 +1.0 27 +21 +21 комфорт 1003.2 860.4
06 18.11 З 2 2000 м ясно +16.2 -3.9 25 +16 +16 1005.1 861.5 +11.2 +31.8
09 18.11 СЗ 1 2000 м ясно +13.4 -1.0 37 +14 +14 1007.3 861.6
12 18.11 З 2 2000 м ясно +9.8 -0.2 50 +9 +9 1009.5 861.3 +9.5 +31.8
15 18.11 З 2 10 км ясно +12.8 +3.8 54 +12 +13 1013.8 863.6
18 18.11 С 4 10 км ясно +21.8 +0.1 24 +21 +27 комфорт 1015.3 864.9 +8.0 +22.0
21 18.11 В 6 10 км 3/0
[Ac inh]
+24.6 -2.4 17 +23 +25 комфорт 1011.6 862.9
00 19.11 СВ 3 10 км 5/0
[Ac und Cs]
+22.0 +3.1 29 +22 +22 комфорт 1009.9 862.8 +8.0 +24.8
03 19.11 СВ 1 2000 м 4/0
[Ac trans]
+16.7 +4.6 45 +18 +18 1010.8 864.1
06 19.11 СВ 3 2000 м 4/0
[Ac lent]
+14.4 -0.1 37 +14 +14 1013.5 866.2 +8.0 +24.8
09 19.11 СВ 1 2000 м 9/0
[Ac lent]
+11.4 +1.9 52 +12 +12 1014.8 866.0
12 19.11 В 2 2000 м 4/0
[Ac cast]
+8.8 -3.4 42 +8 +8 1016.8 866.1 +8.5
15 19.11 В 2 8000 м мгла 6/0 2000 м
[Ac inh]
+10.0 -3.5 38 +9 +10 1019.1 866.9
18 19.11 В 2 9000 м мгла 8/0 2000 м
[Ac inh]
+15.0 -1.5 32 +15 +19 1019.0 866.6 +2.0 +16.0
21 19.11 В 2 10 км 5/0 2000 м
[Ac lent]
+18.6 +1.0 31 +19 +23 1013.3 862.3
00 20.11 Ю 3 6000 м ясно +17.8 +2.0 35 +18 +18 1010.6 861.2 +2.0 +19.6

 

Местоположение метеостанции Chihuahua University (Мексика): широта 28.63 долгота -106.00 высота над уровнем моря 1433 м.

В архиве по умолчанию представлена погода в Chihuahua University за последнюю неделю. Архивные данные за месяц целиком и за предыдущие месяцы, начиная с января 2011 года, Вы можете получить, выбрав интересующий диапазон дат из раскрывающегося списка и нажав кнопку "Ввод!".

Внимание! Время в таблицах - всемирное. Для получения местного времени необходимо прибавить поправку, которая в Chihuahua University равна -6 ч.

Смотрите также архив погоды в соседних городах и на ближайших метеорологических станциях:

Погода в Chihuahua (Мексика) (11 км)
Погода в Temosachic (Мексика) (179 км)
Погода в Hidalgo del Parral (Мексика) (193 км)
Погода в Nueva Casas Grandes (Мексика) (267 км)
Погода в Choix (Мексика) (303 км)
Погода в Tepehuanes (Мексика) (367 км)
Погода в Ciudad Obregon (Мексика) (401 км)
Погода в Pilares de Nacoz (Мексика) (405 км)
Погода в Torreon (Мексика) (430 км)
Погода в Culiacan (Мексика) (448 км)

Пояснения к столбцам:

Ветер - указаны скорость ветра в м/с - средняя за 10 мин, порывы в срок и между сроками (в фигурных скобках) и направление, откуда дует ветер: С - северный, СВ - северо-восточный, В - восточный, ЮВ - юго-восточный, Ю - южный, ЮЗ - юго-западный, З - западный, СЗ - северо-западный.
Видимость - горизонтальная дальность видимости в метрах или километрах. При видимости от 1 до 10 км при отсутствии осадков обычно наблюдается дымка, при ухудшении видимости до 1 км и менее - туман. В сухую погоду видимость может ухудшаться дымом, пылью или мглою.
Явления - указаны атмосферные явления, наблюдавшиеся в срок или в последний час перед сроком; фигурными скобками обозначены явления, наблюдавшиеся между сроками (за 1-3 часа до срока); квадратными скобками обозначены град или гололедные отложения с указанием их диаметра в мм.
Облачность - указаны через наклонную черту общая и нижняя облачность в баллах и высота нижней границы облаков в метрах; квадратными скобками обозначены формы облаков: Ci - перистые, Cs - перисто-слоистые, Cc - перисто-кучевые, Ac - высококучевые, As - высокослоистые, Sc - слоисто-кучевые, Ns - слоисто-дождевые, Cu - кучевые, Cb - кучево-дождевые. Подробнее классификацию облаков см. в Атласе облаков (PDF).
T - Температура воздуха - температура, измеренная на высоте 2 м над землей.
Td - Температура точки росы - температура, при понижении до которой содержащийся в воздухе водяной пар достигнет насыщения.
f - Относительная влажность воздуха - влажноcть воздуха, измеренная на высоте 2 м над землей.
Te - Эффективная температура - температура, которую ощущает одетый по сезону человек в тени. Характеристика душности погоды. При расчете учитывается влияние влажности воздуха и скорости ветра на теплоощущения человека.
Tes - Эффективная температура на солнце - температура, которую ощущает человек, с поправкой на солнечный нагрев. Характеристика знойности погоды. Зависит от высоты солнца над горизонтом, облачности и скорости ветра. Ночью, в пасмурную погоду, а также при ветре 12 м/с и более поправка равна нулю.
P - Атмосферное давление - приведенное к уровню моря атмосферное давление.
Po - Атмосферное давление - измеренное на уровне метеостанции атмосферное давление.
Tmin - Минимальная температура - минимум температуры воздуха на высоте 2 м над землей.
Tmax - Максимальная температура - максимум температуры воздуха на высоте 2 м над землей.
R - Количество осадков - Количество выпавших осадков за период времени, мм. При наведении курсора мыши на число - период времени, за который выпало указанное количество осадков.
R24 - Количество осадков - Количество выпавших осадков за 24 часа, мм.
S - Снежный покров - Высота снежного покрова, см. При наведении курсора мыши на число - состояние снежного покрова и степень покрытия местности в баллах.